This is the latest recevied weather packets stored in our database for station/object N3TTT-13. If no packets are shown the sender has not sent any weather packets the latest 10 day(s).
| Time | Temp. | Humidity | Pressure | Rain* | Wind** | Luminosity | Snow |
|---|---|---|---|---|---|---|---|
| 1777229588 | 9.44° C | 84% | 1019.8 hPa | 0 mm | - | 100 W/m² | - |
| 1777229284 | 9.44° C | 84% | 1019.9 hPa | 0 mm | - | 80 W/m² | - |
| 1777228982 | 9.44° C | 84% | 1019.8 hPa | 0 mm | - | 83 W/m² | - |
| 1777228677 | 9.44° C | 84% | 1019.9 hPa | 0 mm | - | 75 W/m² | - |
| 1777228373 | 10° C | 83% | 1019.8 hPa | 0 mm | - | 85 W/m² | - |
| 1777228069 | 10° C | 82% | 1019.6 hPa | 0 mm | - | 177 W/m² | - |
| 1777227768 | 10° C | 83% | 1019.7 hPa | 0 mm | - | 173 W/m² | - |
| 1777227465 | 10° C | 83% | 1019.6 hPa | 0 mm | - | 186 W/m² | - |
| 1777227161 | 9.44° C | 84% | 1019.6 hPa | 0 mm | - | 245 W/m² | - |
| 1777226858 | 9.44° C | 84% | 1019.8 hPa | 0 mm | - | 226 W/m² | - |
| 1777226556 | 8.89° C | 84% | 1019.7 hPa | 0 mm | - | 159 W/m² | - |
| 1777226252 | 8.89° C | 85% | 1019.9 hPa | 0 mm | - | 138 W/m² | - |
| 1777225949 | 8.89° C | 85% | 1019.9 hPa | 0 mm | - | 102 W/m² | - |
| 1777225644 | 8.89° C | 85% | 1019.8 hPa | 0 mm | - | 78 W/m² | - |
| 1777225342 | 8.89° C | 85% | 1019.6 hPa | 0 mm | - | 88 W/m² | - |
| 1777225038 | 8.89° C | 85% | 1019.6 hPa | 0 mm | - | 90 W/m² | - |
| 1777224736 | 8.89° C | 85% | 1019.6 hPa | 0 mm | - | 115 W/m² | - |
| 1777224431 | 8.89° C | 84% | 1019.8 hPa | 0 mm | - | 134 W/m² | - |
| 1777224127 | 8.89° C | 84% | 1019.7 hPa | 0 mm | - | 101 W/m² | - |
| 1777223824 | 8.89° C | 84% | 1019.7 hPa | 0 mm | - | 97 W/m² | - |
| 1777223519 | 8.89° C | 84% | 1019.6 hPa | 0 mm | - | 83 W/m² | - |
| 1777223217 | 8.89° C | 84% | 1019.7 hPa | 0 mm | - | 114 W/m² | - |
| 1777222915 | 8.89° C | 85% | 1019.7 hPa | 0 mm | - | 179 W/m² | - |
| 1777222611 | 8.89° C | 85% | 1019.6 hPa | 0 mm | - | 115 W/m² | - |
| 1777222309 | 8.89° C | 86% | 1019.6 hPa | 0 mm | - | 98 W/m² | - |
* Rain latest hour (hover to see other rain measurements)
** Current wind speed in m/s (hover to see current wind gust speed)